Location: Aleksandria
(48.6657°N, 33.1137°E)
Time: 23:40:44
(UTC+02:00)

BlueWalker 3 - Pass Details

Date: 30 November 2023
Orbit: 485 x 499 km, 53.2° (Epoch: 03 March)

Event Time Altitude Azimuth Distance (km) Brightness Sun altitude
Exits shadow 03:41:18 12° 72° (ENE) 1,606 5.2 -34.8°
Drops below altitude 10° 03:41:34 10° 74° (ENE) 1,702 5.4 -34.8°
Sets 03:43:50 0° 82° (E) 2,580 6.6 -34.4°
